Regional Weather Roundup
Issued by NWS State College, PA

Home | Current Version | Previous Version | Text Only | Print | Product List | Glossary Off
Versions: 1 2 3 4 5 6 7 8 9 10 11 12 13 14 15 16 17 18 19 20 21 22 23 24 25 26 27 28 29 30 31 32 33 34 35 36 37 38 39 40 41 42 43 44 45 46 47 48 49 50

062
ASUS41 KCTP 240103
RWRCTP

REGIONAL WEATHER ROUNDUP
NATIONAL WEATHER SERVICE STATE COLLEGE PA
900 PM EDT TUE MAY 23 2017

Note: "fair" indicates few or no clouds below 12,000 feet with no
significant weather and/or obstructions to visibility.

* = STATION THAT DOES NOT REPORT PRECIPITATION /E.G. RAIN...SNOW...ETC/
    THUNDER OR FOG.

PAZ002>004-007>009-013>016-020>023-029>032-240200-
WESTERN PENNSYLVANIA

CITY           SKY/WX    TMP DP  RH WIND       PRES   REMARKS
ERIE           PTCLDY    65  42  43 E9        29.74F
MEADVILLE      CLOUDY    65  44  46 CALM      29.76S
FRANKLIN*      CLOUDY    63  45  51 SE7       29.78R
NEW CASTLE     FAIR      65  50  58 E3        29.75S
BEAVER COUNTY  CLEAR     64  48  55 SE3       29.75R
BUTLER*        CLOUDY    64  48  55 SE7       29.76S
PITTSBURGH INT CLOUDY    66  52  60 SE10      29.74S
PITTSBURGH     CLOUDY    63  48  58 SE8       29.75S
INDIANA*       NOT AVBL
LATROBE        MOCLDY    63  50  63 VRB7      29.78S
WASHINGTON CO* CLOUDY    63  52  67 SE7       29.77S
$$

PAZ004>006-010>012-017>019-024>028-033>037-041-042-045-046-049>053-240200-
CENTRAL PENNSYLVANIA

CITY           SKY/WX    TMP DP  RH WIND       PRES   REMARKS
BRADFORD       CLOUDY    60  44  55 S3        29.80S
DUBOIS         CLOUDY    59  42  53 SE6       29.79S
CLEARFIELD     CLOUDY    60  46  59 SE3       29.81R
JOHNSTOWN      CLOUDY    56  48  74 SE7       29.81R
ALTOONA        MOCLDY    59  50  72 S6        29.82R
STATE COLLEGE  PTCLDY    61  46  59 S6        29.81S
WILLIAMSPORT   MOCLDY    65  45  48 SW8       29.79S
SELINSGROVE    CLOUDY    59  51  75 CALM      29.82S
FT INDIANTOWN  CLOUDY    58  55  89 CALM      29.82S
CAPITAL CITY   CLOUDY    63  50  62 SE3       29.82R
HARRISBURG     CLOUDY    63  53  70 E3        29.81S
YORK           CLOUDY    61  54  77 E3        29.81F
$$

PAZ038>040-043-044-047-048-054-055-060>062-067>071-240200-
EASTERN PENNSYLVANIA

CITY           SKY/WX    TMP DP  RH WIND       PRES   REMARKS
SCRANTON       CLOUDY    61  46  57 SE5       29.82S
MOUNT POCONO   CLOUDY    50  48  93 CALM      29.85F
ALLENTOWN      CLOUDY    60  52  74 CALM      29.83S
QUAKERTOWN*    CLOUDY    59  54  82 CALM      29.84S
READING        CLOUDY    61  54  77 CALM      29.82S
LANCASTER      CLOUDY    61  57  87 CALM      29.82S
COATESVILLE    CLOUDY    59  52  77 E6        29.84S
POTTSTOWN      CLOUDY    59  55  87 CALM      29.84S
BLUE BELL      CLOUDY    57  54  88 CALM      29.85R
DOYLESTOWN     CLOUDY    60  54  80 CALM      29.82F
WILLOW GROVE   NOT AVBL
NORTH PHILA    CLOUDY    63  52  67 E5        29.84F
PHILADELPHIA   CLOUDY    63  52  67 E6        29.83F
$$




USA.gov is the U.S. government's official web portal to all federal, state and local government web resources and services.